Vertical_Velocity
3 13 -1 -2 3 2 -4 -3 9 5 -1 -1 2 9 7 1 -1 2 -1 -5 1 0 -2 0 0 -2 -3
-5 -4 -9 -3 -4 3 -9 -0 2 -3 10 -3 3 -6 4 1 -1 -0 3 -1 0 -3 0 1 -2 0 0
-1 34 11 5 3 8 1 2 -1 -21 -0 12 -3 -0 4 2 -4 0 1 3 -1 1 -2 -1 1 -2 1
-10 14 21 -6 6 0 2 3 6 12 12 2 5 3 -1 -3 1 5 1 -2 2 1 -2 1 3 1 -3
-2 3 -6 27 -14 -4 3 3 -5 -4 -4 -2 -5 3 -2 1 -2 -1 3 2 1 1 3 1 -1 -0 -0
-16 8 6 -3 10 -4 -3 13 -10 13 18 3 5 -6 -1 -2 -3 1 2 5 -2 1 -3 -0 -0 1 0
-4 -5 -2 -8 23 -2 -2 -5 -12 -5 10 0 -3 2 -1 1 -1 -0 1 1 -1 4 -1 -1 -1 1 1
-4 10 -0 -2 -0 12 54 -2 23 10 16 -6 -7 -5 -2 -3 0 -0 0 2 -2 2 5 4 1 2 -1
1 3 -13 -4 5 11 -3 42 18 -10 -3 3 -9 8 -2 -3 -2 2 4 7 1 3 2 5 0 5 3
1 1 0 -11 9 5 3 10 20 23 -3 2 0 1 4 -5 -5 6 4 1 3 3 -0 -2 2 2 -1
-7 -4 -5 -6 -12 -3 -2 8 45 -10 -16 2 -5 -1 2 -4 -6 -1 -1 4 -5 -3 -2 3 0 4 2
3 -11 -7 -7 -8 -14 -7 -3 4 4 14 7 -5 -11 -6 -2 -2 -1 3 -4 3 0 -1 1 1 4 0
-7 3 6 3 3 8 4 -2 -2 22 -4 3 3 -4 7 1 -11 -8 -3 -6 -1 3 1 -2 0 -3 -3
-8 -6 -0 -4 -6 -3 -3 -6 1 16 14 3 2 2 -3 6 4 -1 -2 -16 -7 -2 3 7 3 -0 9
-4 -4 -3 0 -7 4 8 -2 10 9 3 11 18 10 4 3 0 2 -2 -6 2 -6 -0 -3 -1 3 4
2 -0 -3 -5 1 1 0 9 -0 3 0 1 -3 8 19 18 6 -4 1 4 -2 3 2 4 4 2 -1
2 -2 2 -5 8 0 1 10 5 16 2 0 2 4 2 -1 -1 6 8 3 -2 -1 2 2 -1 2 1
Height
1402 1403 1411 1419 1424 1431 1440 1444 1451 1456 1465 1472 1478 1485 1490 1494 1501 1506 1509 1514 1518 1521 1524 1527 1530 1533 1535
1392 1395 1401 1410 1417 1423 1430 1434 1438 1449 1457 1463 1469 1474 1482 1486 1492 1499 1503 1507 1511 1515 1518 1522 1525 1527 1530
1384 1390 1394 1401 1407 1414 1422 1428 1433 1439 1449 1452 1459 1466 1472 1477 1484 1491 1495 1500 1504 1508 1512 1515 1518 1522 1525
1383 1383 1385 1389 1398 1403 1410 1417 1425 1430 1438 1444 1451 1456 1463 1469 1475 1482 1487 1493 1497 1501 1504 1508 1512 1515 1519
1377 1379 1380 1379 1384 1391 1399 1408 1415 1422 1429 1434 1442 1448 1454 1462 1467 1473 1479 1485 1490 1494 1497 1501 1505 1509 1511
1370 1371 1369 1373 1376 1381 1390 1396 1402 1410 1416 1425 1433 1439 1444 1448 1456 1463 1470 1476 1481 1485 1491 1494 1498 1501 1504
1364 1362 1364 1368 1369 1373 1380 1386 1392 1399 1408 1414 1424 1429 1433 1440 1447 1454 1462 1468 1473 1478 1483 1486 1490 1493 1496
1355 1357 1356 1360 1365 1366 1375 1377 1384 1388 1395 1403 1410 1419 1425 1432 1441 1448 1453 1459 1465 1470 1475 1478 1481 1485 1488
1347 1343 1346 1352 1356 1360 1360 1365 1368 1375 1384 1393 1399 1410 1415 1421 1432 1438 1446 1450 1456 1461 1466 1471 1474 1478 1479
1331 1335 1336 1341 1346 1351 1352 1354 1357 1367 1372 1382 1391 1399 1407 1410 1420 1428 1435 1441 1447 1452 1457 1462 1466 1469 1471
1326 1328 1329 1333 1336 1341 1344 1350 1349 1355 1364 1372 1378 1388 1396 1400 1407 1416 1425 1432 1436 1443 1448 1453 1458 1462 1463
1321 1323 1322 1324 1327 1330 1334 1339 1343 1352 1358 1361 1366 1375 1384 1391 1397 1403 1412 1420 1427 1432 1439 1444 1449 1452 1455
1308 1309 1311 1313 1317 1319 1324 1332 1340 1344 1351 1353 1357 1365 1374 1380 1387 1391 1401 1408 1418 1424 1428 1434 1439 1444 1446
1299 1299 1300 1303 1305 1310 1315 1323 1332 1333 1338 1345 1350 1357 1363 1370 1377 1383 1391 1399 1406 1415 1422 1427 1432 1436 1438
1289 1291 1292 1295 1297 1304 1309 1314 1320 1321 1327 1331 1339 1346 1356 1362 1368 1375 1382 1390 1397 1403 1413 1418 1423 1428 1430
1277 1279 1280 1283 1286 1294 1301 1302 1307 1310 1313 1320 1326 1337 1346 1350 1360 1366 1374 1379 1386 1395 1402 1408 1413 1419 1422
1264 1265 1268 1271 1275 1278 1282 1288 1296 1299 1302 1309 1318 1326 1335 1342 1350 1358 1364 1368 1378 1386 1394 1398 1404 1412 1415